Tracking 28052 objects as of 25-Sep-2023
HD Live streaming from Space Station
objects crossing your sky now

SL-8 DEB

Track SL-8 DEB now!
10-day predictions


NORAD ID: 21167
Int'l Code: 1991-009AE
Perigee: 1,451.4 km
Apogee: 1,667.5 km
Inclination: 73.9 °
Period: 117.1 minutes
Semi major axis: 7930 km
RCS: 0.0569 m2 (small)
Launch date: February 12, 1991
Source: Commonwealth of Independent States (former USSR) (CIS)
Launch site: PLESETSK MISSILE AND SPACE COMPLEX (PKMTR)

Note: This is SATELLITE DEBRIS
Your satellite tracking list
Your tracking list is empty




NASA's NSSDC Master Catalog

Two Line Element Set (TLE):
1 21167U 91009AE  23267.68263375 -.00000008  00000-0  58828-4 0  9990
2 21167  73.9190 336.4502 0136273  95.5090  62.0783 12.29301690460921
Source of the keplerian elements: AFSPC